Location: Copper Breaks State Park
(34.1132°N, 99.7492°W)
Time: 00:15:54
(UTC-05:00)

SL-16 R/B - Visible Passes

Search period start: 28 March 2015 00:00
Search period end: 07 April 2015 00:00
Orbit: 986 x 1006 km, 99.2° (Epoch: 27 March)

Date Brightness Start Highest point End Pass type
(mag) Time Alt. Az. Time Alt. Az. Time Alt. Az.
28 Mar 4.2 04:16:41 10° ESE 04:21:48 29° ENE 04:27:05 10° N visible
28 Mar 2.9 05:59:30 10° SSW 06:05:17 39° W 06:11:04 10° NNW visible
29 Mar 3.2 04:46:30 10° SE 04:52:28 51° ENE 04:58:31 10° N visible
29 Mar 3.6 06:31:47 10° SW 06:36:28 21° W 06:40:55 10° NW visible
30 Mar 5.2 03:38:00 10° E 03:40:20 13° ENE 03:43:03 10° NE visible
30 Mar 2.4 05:17:01 10° SSE 05:23:15 89° WSW 05:29:33 10° NNW visible
31 Mar 4.5 04:06:11 10° ESE 04:10:50 23° ENE 04:15:42 10° NNE visible
31 Mar 2.7 05:48:10 10° S 05:54:10 49° W 06:00:12 10° NNW visible
01 Apr 3.6 04:35:43 10° SE 04:41:28 42° ENE 04:47:19 10° N visible
01 Apr 3.4 06:20:06 10° SSW 06:25:16 26° W 06:30:19 10° NW visible
02 Apr 2.6 05:06:01 10° SSE 05:12:12 76° ENE 05:18:29 10° N visible
02 Apr 4.0 06:53:30 10° WSW 06:56:35 13° W 06:59:14 10° WNW visible
03 Apr 4.8 03:55:49 10° ESE 03:59:53 19° ENE 04:04:13 10° NNE visible
03 Apr 2.5 05:36:56 10° S 05:43:05 60° W 05:49:16 10° NNW visible
04 Apr 4.0 04:25:01 10° SE 04:30:29 34° ENE 04:36:04 10° N visible
04 Apr 3.1 06:08:34 10° SSW 06:14:07 32° W 06:19:37 10° NW visible
05 Apr 2.9 04:55:04 10° SSE 05:01:11 62° ENE 05:07:22 10° N visible
05 Apr 3.8 06:41:16 10° SW 06:45:21 17° W 06:49:08 10° NW visible
06 Apr 5.1 03:45:39 10° E 03:48:57 16° ENE 03:52:35 10° NNE visible
06 Apr 2.4 05:25:46 10° S 05:32:00 75° WSW 05:38:17 10° NNW visible
